Location: Ashtead
(51.3000°N, 0.3000°W)
Time: 04:51:07
(UTC+00:00)

SL-16 R/B - Pass Details

Date: 26 September 2023
Orbit: 842 x 845 km, 71.0° (Epoch: 29 November)

Event Time Altitude Azimuth Distance (km) Brightness Sun altitude
Rises 01:32:13 0° 331° (NNW) 3,415 5.7 -35.6°
Reaches altitude 10° 01:34:57 10° 341° (NNW) 2,477 5.0 -35.4°
Maximum altitude 01:40:00 32° 44° (NE) 1,425 3.8 -34.9°
Drops below altitude 10° 01:45:02 10° 107° (ESE) 2,468 4.8 -34.5°
Sets 01:47:45 0° 117° (ESE) 3,400 5.4 -34.3°
